Location: Banff
(51.1667°N, 115.5667°W)
Time: 10:31:55
(UTC+00:00)

SR - Pass Details

Date: 01 December 2020
Orbit: 575 x 880 km, 66.7° (Epoch: 19 January)

Event Time Altitude Azimuth Distance (km) Brightness Sun altitude
Rises 01:19:26 0° 192° (SSW) 2,808 ? -15.1°
Reaches altitude 10° 01:21:43 10° 184° (S) 1,937 ? -15.4°
Maximum altitude 01:25:43 37° 116° (ESE) 974 ? -16.0°
Enters shadow 01:27:09 29° 78° (ENE) 1,163 ? -16.2°
